Tracking 19831 objects as of 23-Aug-2019
HD Live streaming from Space Station
objects crossing your sky now

COSMOS 2251 DEB

Track COSMOS 2251 DEB now!
10-day predictions


NORAD ID: 34035
Int'l Code: 1993-036HW
Perigee: 748.3 km
Apogee: 830.6 km
Inclination: 74.1 °
Period: 100.5 minutes
Semi major axis: 7160 km
RCS: 0.0156 m2 (small)
Launch date: June 16, 1993
Source: Commonwealth of Independent States (former USSR) (CIS)
Launch site: PLESETSK MISSILE AND SPACE COMPLEX (PKMTR)

Note: This is SATELLITE DEBRIS
aabbcc
Your satellite tracking list
Your tracking list is empty




NASA's NSSDC Master Catalog

Two Line Element Set (TLE):
1 34035U 93036HW  19234.86842513 +.00000266 +00000-0 +10497-3 0  9990
2 34035 074.0712 263.7723 0057444 136.3333 283.1249 14.32820909548503
Source of the keplerian elements: AFSPC